Content
SEND FEEDBACK

Daily
Averages
Monthly
Summary
Canada

STE. DOROTHEE, QUEBEC


Home > North America > Canada > Quebec
Elevation: 75 feet     Latitude: 45 31N     Longitude: 73 47W

WEATHER
 
SELECT A DAY
Number of Records: 198,515;   Date Range: 1/1/95 - 8/26/14
 
SHARE

PRINT THIS DATA

[ ← Previous Day ]
WEATHER ALMANAC - JANUARY 16, 2013
[ Next Day → ]
[ °C ]   °F
Weather ElementAverageHighLow
Temperature29.7 °F33.8 °F (11:00 pm)26.6 °F (3:00 am)
Dewpoint22.2 °F27 °F (7:00 pm)17.6 °F (1:00 am)
Humidity72.5 %86 % (4:00 pm)58 % (1:00 pm)
Barometer29.93 in30.22 in (1:00 am)29.71 in (10:00 pm)
Wind Speed7.5 mph16.1 mph (11:00 pm)
Weather ElementAverage
Visibility15 mi
Wind DirectionSSE (168.5 °)

Weather ElementTotal
Precipitation---
Heating Degree Days34.8 (Base 65)
Averaged from 26 records on January 16, 2013
WEATHER CONDITIONS BREAKOUT
WIND DIRECTION BREAKOUT
WEATHER BY HOUR - JANUARY 16, 2013
[ °C ]   °F
Local TimeTemperatureDewpointHumidityBarometerVisibilityWind DirectionWind SpeedGust SpeedPrecipitationEventsConditions
1:00 AM28.4 °F17.6 °F64 %30.22 in15.0 miWSW (240°)8.1 mphOvercast
2:00 AM28.4 °F17.6 °F64 %30.22 in15.0 miSSW (210°)5.8 mphMostly Cloudy
3:00 AM26.6 °F17.6 °F69 %30.18 in15.0 miSW (230°)4.6 mphOvercast
4:00 AM26.6 °F17.6 °F69 %30.15 in15.0 miSSW (200°)2.3 mphOvercast
5:00 AM26.6 °F17.6 °F69 %30.12 in15.0 miSE (140°)2.3 mphOvercast
6:00 AM26.6 °F19.4 °F74 %30.11 in15.0 miSSE (160°)5.8 mphOvercast
7:00 AM26.6 °F19.4 °F74 %30.09 in15.0 miSE (140°)3.5 mphMostly Cloudy
7:00 AM27.0 °F20.0 °F64 %30.09 in15.0 miSE (140°)3.5 mphMostly Cloudy
8:00 AM28.4 °F19.4 °F69 %30.08 in15.0 miSSE (150°)2.3 mphMostly Cloudy
9:00 AM28.4 °F19.4 °F69 %30.04 in15.0 miESE (120°)4.6 mphMostly Cloudy
10:00 AM30.2 °F21.2 °F69 %30.02 in15.0 miSSE (150°)5.8 mphOvercast
11:00 AM30.2 °F21.2 °F69 %29.98 in15.0 miSouth (170°)4.6 mphOvercast
12:00 PM30.2 °F23.0 °F75 %29.92 in15.0 miSouth (170°)8.1 mphOvercast
1:00 PM32.0 °F21.2 °F64 %29.88 in15.0 miSSE (150°)8.1 mphMostly Cloudy
1:00 PM31.0 °F22.0 °F58 %29.88 in15.0 miSSE (160°)6.9 mphPartly Cloudy
2:00 PM32.0 °F19.4 °F60 %29.83 in15.0 miSSE (160°)5.8 mphScattered Clouds
3:00 PM32.0 °F23.0 °F69 %29.81 in15.0 miSSE (150°)9.2 mphScattered Clouds
4:00 PM30.2 °F26.6 °F86 %29.80 in15.0 miSE (140°)10.4 mphMostly Cloudy
5:00 PM30.2 °F26.6 °F86 %29.77 in15.0 miSSE (150°)8.1 mphMostly Cloudy
6:00 PM30.2 °F26.6 °F86 %29.75 in15.0 miSSE (150°)10.4 mphOvercast
7:00 PM30.2 °F26.6 °F86 %29.73 in15.0 miSSE (160°)12.7 mphOvercast
7:00 PM31.0 °F27.0 °F77 %29.73 in15.0 miSSE (160°)12.7 mphOvercast
8:00 PM32.0 °F26.6 °F80 %29.73 in15.0 miSouth (180°)11.5 mphOvercast
9:00 PM32.0 °F26.6 °F80 %29.73 in15.0 miSSW (200°)11.5 mphMostly Cloudy
10:00 PM32.0 °F26.6 °F80 %29.71 in15.0 miSouth (190°)10.4 mphScattered Clouds
11:00 PM33.8 °F26.6 °F75 %29.71 in15.0 miSSW (210°)16.1 mphOvercast
Hourly data recorded from CYUL, located miles away from Ste. Dorothee, Quebec







STORIES FROM OUR PARTNERS